User: anonymous   Login
Location: Deep South Regional Star Gaze
(30.9929°N, 90.9586°W)
Time: 21:05:04
(UTC-05:00)
Language:

H-2A R/B - Orbit

View from above orbital plane
View from above orbital plane
View from above satellite
View from above satellite

Ground track
Ground track

The orbit data is extracted from the following two-line orbital elements,

1 26899U 01038B   16148.45426110  .00000312  00000-0  13602-3 0  9990
2 26899  27.9004 221.7558 7124244 292.7133   9.8933  2.47113532126963
Epoch (UTC): 27 May 2016 10:54:08
Eccentricity: 0.7124244
inclination: 27.9004°
perigee height: 268 km
apogee height: 33196 km
right ascension of ascending node: 221.7558°
argument of perigee: 292.7133°
revolutions per day: 2.47113532
mean anomaly at epoch: 9.8933°
orbit number at epoch: 12696

The dashed part of the orbit path shows where the satellite is in the earth's shadow,  

DLR